When you browse on this site, cookies collect data to enhance your experience and personalize the content and advertising you see.
Visit our Privacy Policy to learn more. By continuing to use the site, you agree to this use of cookies and data.
  • In Sweden
  • List of Countries
  • For 7 days
  • Water Temperature
  • Weather Map
  • Weather Widgets
  • user-avatar
    Login

    Hourly Weather Myslakow

    Today, 22 August, Thursday

    Time Temperature Precipitation Wind Pressure Humidity
    00:00 +15°C° 0 mm 1 mps 763 mmHg 88%
    01:00 +14°C° 0 mm 1 mps 764 mmHg 90%
    02:00 +14°C° 0 mm 1 mps 763 mmHg 90%
    03:00 +14°C° 0 mm 1 mps 763 mmHg 91%
    04:00 +14°C° 0 mm 1 mps 763 mmHg 92%
    05:00 +15°C° 0 mm 1 mps 764 mmHg 88%
    06:00 +16°C° 0 mm 1 mps 764 mmHg 85%
    07:00 +18°C° 0 mm 1 mps 764 mmHg 81%
    08:00 +18°C° 0 mm 2 mps 764 mmHg 74%
    09:00 +20°C° 0 mm 2 mps 764 mmHg 66%
    10:00 +21°C° 0 mm 3 mps 764 mmHg 58%
    11:00 +22°C° 0 mm 3 mps 764 mmHg 54%
    12:00 +24°C° 0 mm 3 mps 764 mmHg 51%
    13:00 +24°C° 0 mm 3 mps 763 mmHg 47%
    14:00 +24°C° 0 mm 3 mps 763 mmHg 47%
    15:00 +24°C° 0 mm 3 mps 763 mmHg 47%
    16:00 +24°C° 0 mm 3 mps 762 mmHg 47%
    17:00 +22°C° 0 mm 3 mps 762 mmHg 52%
    18:00 +20°C° 0 mm 3 mps 762 mmHg 58%
    19:00 +19°C° 0 mm 3 mps 762 mmHg 63%
    20:00 +18°C° 0 mm 2 mps 763 mmHg 65%
    21:00 +17°C° 0 mm 2 mps 763 mmHg 67%
    22:00 +16°C° 0 mm 2 mps 763 mmHg 69%
    23:00 +16°C° 0 mm 2 mps 763 mmHg 70%

    Tomorrow, 23 August, Friday

    Time Temperature Precipitation Wind Pressure Humidity
    00:00 +16°C° 0 mm 2 mps 763 mmHg 72%
    01:00 +15°C° 0 mm 2 mps 763 mmHg 73%
    02:00 +15°C° 0 mm 2 mps 763 mmHg 75%
    03:00 +15°C° 0 mm 2 mps 763 mmHg 76%
    04:00 +14°C° 0 mm 2 mps 763 mmHg 78%
    05:00 +15°C° 0 mm 2 mps 763 mmHg 75%
    06:00 +16°C° 0 mm 2 mps 763 mmHg 72%
    07:00 +18°C° 0 mm 3 mps 763 mmHg 70%
    08:00 +19°C° 0 mm 3 mps 763 mmHg 64%
    09:00 +21°C° 0 mm 3 mps 763 mmHg 57%
    10:00 +23°C° 0 mm 4 mps 763 mmHg 51%
    11:00 +25°C° 0 mm 4 mps 763 mmHg 48%
    12:00 +26°C° 0 mm 4 mps 762 mmHg 45%
    13:00 +27°C° 0 mm 4 mps 762 mmHg 42%
    14:00 +27°C° 0 mm 4 mps 762 mmHg 43%
    15:00 +27°C° 0 mm 4 mps 761 mmHg 44%
    16:00 +27°C° 0 mm 4 mps 761 mmHg 44%
    17:00 +25°C° 0 mm 3 mps 761 mmHg 50%
    18:00 +22°C° 0 mm 3 mps 761 mmHg 55%
    19:00 +21°C° 0 mm 3 mps 761 mmHg 61%
    20:00 +20°C° 0 mm 3 mps 761 mmHg 63%
    21:00 +19°C° 0 mm 3 mps 761 mmHg 66%
    22:00 +18°C° 0 mm 3 mps 761 mmHg 68%
    23:00 +18°C° 0 mm 3 mps 761 mmHg 70%

    Day after tomorrow, 24 August, Saturday

    Time Temperature Precipitation Wind Pressure Humidity
    00:00 +17°C° 0 mm 3 mps 761 mmHg 72%
    01:00 +17°C° 0 mm 3 mps 761 mmHg 74%
    02:00 +17°C° 0 mm 3 mps 761 mmHg 75%
    03:00 +16°C° 0 mm 3 mps 761 mmHg 76%
    04:00 +16°C° 0 mm 3 mps 760 mmHg 76%
    05:00 +17°C° 0 mm 3 mps 760 mmHg 74%
    06:00 +18°C° 0 mm 4 mps 760 mmHg 71%
    07:00 +19°C° 0 mm 4 mps 760 mmHg 68%
    08:00 +20°C° 0 mm 4 mps 760 mmHg 63%
    09:00 +22°C° 0 mm 4 mps 760 mmHg 59%
    10:00 +25°C° 0 mm 4 mps 760 mmHg 55%
    11:00 +26°C° 0 mm 4 mps 760 mmHg 52%
    12:00 +27°C° 0 mm 4 mps 759 mmHg 49%
    13:00 +28°C° 0 mm 5 mps 759 mmHg 46%
    14:00 +28°C° 0 mm 5 mps 759 mmHg 47%
    15:00 +28°C° 0 mm 5 mps 758 mmHg 49%
    16:00 +28°C° 0 mm 5 mps 758 mmHg 50%
    17:00 +26°C° 0 mm 4 mps 758 mmHg 55%
    18:00 +23°C° 0 mm 4 mps 758 mmHg 60%
    19:00 +22°C° 0 mm 3 mps 758 mmHg 66%
    20:00 +21°C° 0 mm 3 mps 758 mmHg 68%
    21:00 +21°C° 0 mm 3 mps 758 mmHg 69%
    22:00 +20°C° 0 mm 3 mps 758 mmHg 71%
    23:00 +19°C° 0 mm 3 mps 758 mmHg 72%

    25 August, Sunday

    Time Temperature Precipitation Wind Pressure Humidity
    00:00 +19°C° 0 mm 3 mps 758 mmHg 72%
    01:00 +19°C° 0 mm 3 mps 758 mmHg 73%
    02:00 +18°C° 0 mm 3 mps 758 mmHg 73%
    03:00 +18°C° 0 mm 3 mps 758 mmHg 74%
    04:00 +17°C° 0 mm 3 mps 758 mmHg 74%
    05:00 +18°C° 0 mm 3 mps 758 mmHg 72%
    06:00 +19°C° 0 mm 4 mps 758 mmHg 70%
    07:00 +19°C° 0 mm 4 mps 758 mmHg 68%
    08:00 +21°C° 0 mm 5 mps 758 mmHg 63%
    09:00 +23°C° 0 mm 5 mps 758 mmHg 58%
    10:00 +26°C° 0 mm 5 mps 758 mmHg 54%
    11:00 +27°C° 0 mm 5 mps 758 mmHg 51%
    12:00 +28°C° 0 mm 5 mps 758 mmHg 49%
    13:00 +29°C° 0 mm 5 mps 758 mmHg 47%
    14:00 +29°C° 0 mm 5 mps 758 mmHg 47%
    15:00 +29°C° 0 mm 5 mps 758 mmHg 48%
    16:00 +29°C° 0 mm 5 mps 757 mmHg 48%
    17:00 +27°C° 0 mm 5 mps 757 mmHg 53%
    18:00 +26°C° 0 mm 4 mps 758 mmHg 58%
    19:00 +23°C° 0 mm 4 mps 758 mmHg 62%
    20:00 +22°C° 0 mm 4 mps 758 mmHg 63%
    21:00 +22°C° 0 mm 4 mps 758 mmHg 65%
    22:00 +21°C° 0 mm 4 mps 758 mmHg 66%
    23:00 +21°C° 0 mm 4 mps 758 mmHg 67%

    26 August, Monday

    Time Temperature Precipitation Wind Pressure Humidity
    00:00 +20°C° 0 mm 4 mps 758 mmHg 69%
    01:00 +20°C° 0 mm 4 mps 758 mmHg 70%
    02:00 +19°C° 0 mm 4 mps 758 mmHg 72%
    03:00 +19°C° 0 mm 4 mps 758 mmHg 74%
    04:00 +18°C° 0 mm 3 mps 758 mmHg 76%
    05:00 +19°C° 0 mm 4 mps 758 mmHg 75%
    06:00 +20°C° 0 mm 4 mps 758 mmHg 74%
    07:00 +21°C° 0 mm 4 mps 758 mmHg 73%
    08:00 +23°C° 0 mm 5 mps 758 mmHg 68%
    09:00 +26°C° 0 mm 5 mps 758 mmHg 63%
    10:00 +28°C° 0 mm 5 mps 758 mmHg 58%
    11:00 +29°C° 0 mm 5 mps 758 mmHg 54%
    12:00 +30°C° 0 mm 5 mps 758 mmHg 50%
    13:00 +32°C° 0 mm 5 mps 758 mmHg 46%
    14:00 +32°C° 0 mm 5 mps 758 mmHg 47%
    15:00 +30°C° 0 mm 5 mps 757 mmHg 47%
    16:00 +30°C° 0 mm 4 mps 757 mmHg 48%
    17:00 +29°C° 0 mm 4 mps 757 mmHg 54%
    18:00 +27°C° 0 mm 4 mps 757 mmHg 60%
    19:00 +25°C° 0 mm 3 mps 757 mmHg 66%
    20:00 +23°C° 0 mm 4 mps 757 mmHg 68%
    21:00 +23°C° 0 mm 4 mps 758 mmHg 71%
    22:00 +22°C° 0 mm 4 mps 758 mmHg 73%
    23:00 +22°C° 0 mm 3 mps 758 mmHg 76%

    27 August, Tuesday

    Time Temperature Precipitation Wind Pressure Humidity
    00:00 +21°C° 0 mm 3 mps 757 mmHg 78%
    01:00 +20°C° 0 mm 3 mps 757 mmHg 81%
    02:00 +20°C° 0 mm 3 mps 757 mmHg 82%
    03:00 +20°C° 0 mm 3 mps 757 mmHg 82%
    04:00 +20°C° 0 mm 2 mps 757 mmHg 83%
    05:00 +20°C° 0 mm 3 mps 757 mmHg 80%
    06:00 +21°C° 0 mm 3 mps 757 mmHg 77%
    07:00 +22°C° 0 mm 3 mps 757 mmHg 74%
    08:00 +25°C° 0 mm 3 mps 757 mmHg 67%
    09:00 +27°C° 0 mm 3 mps 757 mmHg 61%
    10:00 +28°C° 0 mm 3 mps 757 mmHg 54%
    11:00 +29°C° 0 mm 3 mps 757 mmHg 52%
    12:00 +30°C° 0 mm 3 mps 757 mmHg 49%
    13:00 +31°C° 0 mm 2 mps 757 mmHg 47%
    14:00 +30°C° 0 mm 2 mps 756 mmHg 49%
    15:00 +30°C° 0 mm 2 mps 756 mmHg 51%
    16:00 +30°C° 0 mm 1 mps 756 mmHg 53%
    17:00 +28°C° 0.3 mm 2 mps 756 mmHg 57%
    18:00 +27°C° 0.3 mm 2 mps 755 mmHg 62%
    19:00 +25°C° 0.3 mm 2 mps 755 mmHg 66%
    20:00 +25°C° 0.3 mm 2 mps 755 mmHg 70%
    21:00 +24°C° 0.3 mm 2 mps 755 mmHg 75%
    22:00 +22°C° 0.3 mm 3 mps 756 mmHg 79%
    23:00 +22°C° 0 mm 3 mps 755 mmHg 81%
    Show more